Temp
67 68 67 66 65 65 65 66 64 65 65 65 65 64 62 58 57 59 59 61 61 59
67 66 65 64 64 65 64 65 65 65 64 64 65 64 62 62 61 62 59 61 63 62
65 65 63 60 59 63 63 64 64 64 64 64 64 64 62 60 59 59 59 61 62 62
65 64 63 62 62 62 62 63 63 63 63 63 61 61 60 62 62 62 59 62 62 64
63 62 60 60 61 62 62 63 63 63 62 58 57 60 60 62 63 63 62 63 64 64
61 59 58 59 60 59 61 63 63 63 62 58 60 60 63 64 65 65 65 64 65 64
59 58 58 59 60 60 60 61 62 62 63 59 57 60 64 65 65 64 63 64 64 65
59 59 59 59 59 60 61 61 61 61 62 58 56 58 63 64 60 64 62 65 67 67
58 59 58 58 58 59 59 59 59 60 61 55 56 54 54 57 62 62 64 64 65 66
59 58 58 58 58 58 56 57 58 58 61 60 55 51 50 53 64 63 64 64 62 66
58 57 58 57 57 56 56 56 56 56 60 58 55 51 48 51 58 65 65 65 65 64
58 57 56 56 55 55 56 56 55 54 59 54 54 51 48 51 60 64 65 66 61 64
56 56 55 55 55 56 57 57 55 54 58 53 54 51 47 50 59 62 64 65 65 53
53 55 55 51 56 56 56 56 56 53 55 53 52 54 47 46 64 64 65 68 67 65
MSLP
1018.33 1018.23 1018.11 1018.17 1018.21 1018.02 1017.69 1017.43 1017.39 1017.19 1016.88 1016.57 1016.29 1016.25 1016.30 1016.50 1016.05 1017.01 1016.79 1016.30 1016.39 1016.42
1018.29 1018.28 1018.15 1017.99 1017.91 1017.61 1017.48 1017.20 1016.87 1016.59 1016.33 1016.07 1015.77 1015.64 1015.77 1015.71 1015.67 1016.06 1016.18 1015.79 1015.49 1015.59
1018.26 1018.23 1018.21 1018.06 1017.68 1017.38 1017.16 1016.92 1016.57 1016.19 1015.98 1015.61 1015.24 1015.04 1014.96 1015.09 1015.07 1015.37 1015.15 1015.07 1014.88 1015.00
1018.11 1018.10 1018.02 1017.84 1017.50 1017.21 1016.89 1016.53 1016.13 1015.81 1015.45 1014.99 1014.76 1014.45 1014.24 1014.18 1014.24 1014.33 1014.35 1014.28 1014.35 1014.20
1018.20 1018.18 1018.01 1017.70 1017.25 1016.96 1016.50 1016.12 1015.71 1015.30 1014.97 1014.72 1014.35 1013.87 1013.60 1013.40 1013.24 1013.28 1013.40 1013.46 1013.56 1013.57
1018.24 1018.14 1017.86 1017.48 1017.04 1016.69 1016.13 1015.62 1015.20 1014.77 1014.32 1014.13 1013.68 1013.31 1012.97 1012.85 1012.70 1012.69 1012.81 1013.02 1013.02 1013.24
1018.17 1017.97 1017.68 1017.29 1016.74 1016.27 1015.80 1015.28 1014.84 1014.34 1013.81 1013.76 1013.56 1013.07 1012.54 1012.40 1012.40 1012.44 1012.60 1012.82 1012.83 1012.75
1018.13 1017.82 1017.41 1016.96 1016.51 1015.94 1015.48 1015.07 1014.61 1013.98 1013.39 1013.42 1013.19 1012.88 1012.30 1012.23 1012.34 1012.24 1012.29 1012.43 1012.39 1012.54
1017.95 1017.55 1017.11 1016.69 1016.30 1015.81 1015.31 1014.86 1014.29 1013.54 1013.00 1013.03 1012.74 1012.44 1012.47 1012.36 1012.18 1012.05 1011.96 1011.98 1012.18 1012.39
1017.72 1017.30 1016.96 1016.54 1016.06 1015.55 1015.13 1014.62 1013.87 1013.23 1012.51 1012.15 1012.51 1012.43 1012.25 1012.16 1012.02 1011.83 1011.66 1011.76 1012.06 1012.05
1017.53 1017.11 1016.69 1016.30 1015.82 1015.41 1014.93 1014.27 1013.63 1013.06 1012.24 1012.06 1012.11 1012.05 1011.95 1012.01 1012.05 1011.56 1011.47 1011.74 1012.01 1012.21
1017.31 1016.87 1016.45 1016.06 1015.62 1015.16 1014.61 1013.86 1013.42 1012.97 1012.11 1012.12 1011.79 1011.67 1011.71 1012.00 1011.83 1011.53 1011.32 1011.75 1012.33 1012.39
1017.32 1016.75 1016.26 1015.97 1015.51 1014.98 1014.32 1013.53 1013.10 1012.73 1012.20 1012.03 1011.76 1011.61 1011.59 1011.79 1011.74 1011.44 1011.38 1011.72 1012.13 1012.45
1017.14 1016.66 1016.22 1016.05 1015.29 1014.74 1013.97 1013.21 1012.87 1012.64 1012.38 1012.12 1011.99 1011.51 1011.56 1011.45 1011.13 1011.19 1011.28 1011.45 1011.88 1012.42
Wind_Speed
7 5 5 6 6 7 7 8 10 10 10 11 11 9 8 5 4 11 9 13 10 6
6 6 7 8 7 8 9 8 10 11 12 11 11 11 12 10 11 12 10 12 10 7
6 7 7 7 8 10 10 10 11 12 12 12 12 12 12 9 12 10 9 7 9 9
7 9 9 9 10 9 9 10 11 12 13 13 12 11 10 12 12 14 9 8 9 10
8 8 9 10 10 9 10 10 12 12 12 12 11 10 10 13 12 13 10 8 9 10
8 9 10 11 11 10 12 11 12 12 12 11 10 9 9 11 11 9 7 6 8 8
11 11 11 11 12 11 11 11 12 13 12 8 8 10 9 10 7 6 5 5 6 6
12 12 12 12 12 11 11 11 12 13 12 8 6 7 8 7 6 7 6 6 6 5
11 12 12 11 11 11 11 12 12 13 12 6 5 7 7 7 6 7 8 6 5 4
11 12 11 11 12 12 12 12 12 13 11 7 4 8 10 9 8 7 7 6 4 3
13 13 13 12 13 13 12 12 11 12 10 9 5 8 8 9 6 6 5 3 4 4
12 13 14 13 14 13 11 12 10 9 11 5 8 4 6 7 7 6 6 5 5 4
11 12 14 11 13 11 11 10 7 9 6 8 7 6 5 9 6 8 5 4 4 3
9 12 11 9 11 11 12 10 8 7 7 6 7 8 6 9 7 7 7 5 5 4
Wind_Direction
286 287 291 307 312 302 301 307 304 299 296 291 284 270 225 217 172 256 243 242 236 243
320 312 307 310 306 301 300 303 304 305 304 295 286 266 231 237 238 234 236 244 238 234
318 324 318 315 307 305 301 303 306 306 299 292 289 273 240 226 230 235 238 235 238 235
330 333 328 313 303 295 301 306 307 306 300 297 294 269 237 230 233 224 231 220 239 246
337 333 325 317 305 298 302 307 308 307 310 299 285 258 232 230 224 224 223 226 238 259
331 330 328 322 320 306 304 311 312 307 303 300 290 265 237 230 227 221 208 239 272 260
334 329 323 320 317 310 305 311 312 305 298 301 286 284 240 231 218 195 173 258 248 256
329 324 319 323 323 316 315 316 310 305 293 288 289 272 258 237 246 221 209 231 228 264
327 326 324 323 326 319 319 318 312 307 295 278 283 277 258 246 236 223 232 255 197 193
327 328 333 328 325 325 322 312 314 313 296 295 269 283 254 241 235 240 235 214 179 181
332 327 326 328 326 324 321 314 313 304 310 329 281 265 240 221 231 240 229 158 143 160
330 329 325 326 326 326 321 317 317 304 313 329 315 300 226 195 208 222 201 149 159 181
324 327 322 325 323 319 313 305 312 317 339 339 319 311 227 196 190 197 183 171 145 216
317 324 328 314 317 322 314 307 325 346 355 356 342 306 190 206 212 190 178 169 165 189